Time,TemperatureF,DewpointF,PressureIn,WindDirection,WindDirectionDegrees,WindSpeedMPH,WindSpeedGustMPH,Humidity,HourlyPrecipIn,Conditions,Clouds,dailyrainin,SolarRadiationWatts/m^2,SoftwareType,DateUTC
2013-01-02 00:02:00,39.0,34.0,-100.00,NW,313,5.0,13.0,81,0.00,,,0.00,0.000000,,2013-01-02 09:02:00,
2013-01-02 00:12:00,39.0,34.0,-100.00,NW,313,5.0,13.0,81,0.00,,,0.00,0.000000,,2013-01-02 09:12:00,
2013-01-02 00:22:00,39.0,34.0,-100.00,NW,313,5.0,13.0,81,0.00,,,0.00,0.000000,,2013-01-02 09:22:00,
2013-01-02 00:43:00,39.0,33.0,-100.00,NW,310,5.0,11.0,79,0.00,,,0.00,0.000000,,2013-01-02 09:43:00,
2013-01-02 00:52:00,39.0,33.0,-100.00,NW,310,5.0,11.0,79,0.00,,,0.00,0.000000,,2013-01-02 09:52:00,
2013-01-02 01:02:00,39.0,33.0,-100.00,NW,310,5.0,11.0,79,0.00,,,0.00,0.000000,,2013-01-02 10:02:00,
2013-01-02 01:12:00,39.0,33.0,-100.00,NW,310,5.0,11.0,79,0.00,,,0.00,0.000000,,2013-01-02 10:12:00,
2013-01-02 01:22:00,39.0,33.0,-100.00,NW,310,5.0,11.0,79,0.00,,,0.00,0.000000,,2013-01-02 10:22:00,
2013-01-02 01:42:00,39.0,33.0,-100.00,NW,310,5.0,9.0,78,0.00,,,0.00,0.000000,,2013-01-02 10:42:00,
2013-01-02 01:52:00,39.0,33.0,-100.00,NW,310,5.0,9.0,78,0.00,,,0.00,0.000000,,2013-01-02 10:52:00,
2013-01-02 02:02:00,39.0,33.0,-100.00,NW,310,5.0,9.0,78,0.00,,,0.00,0.000000,,2013-01-02 11:02:00,
2013-01-02 02:11:00,39.0,33.0,-100.00,NW,310,5.0,9.0,78,0.00,,,0.00,0.000000,,2013-01-02 11:11:00,
2013-01-02 02:22:00,39.0,33.0,-100.00,NW,310,5.0,9.0,78,0.00,,,0.00,0.000000,,2013-01-02 11:22:00,
2013-01-02 02:43:00,36.0,36.0,-100.00,SSE,164,2.0,6.0,100,0.00,,,0.00,0.000000,,2013-01-02 11:43:00,
2013-01-02 02:52:00,36.0,36.0,-100.00,SSE,164,2.0,6.0,100,0.00,,,0.00,0.000000,,2013-01-02 11:52:00,
2013-01-02 03:02:00,36.0,36.0,-100.00,SSE,164,2.0,6.0,100,0.00,,,0.00,0.000000,,2013-01-02 12:02:00,
2013-01-02 03:12:00,36.0,36.0,-100.00,SSE,164,2.0,6.0,100,0.00,,,0.00,0.000000,,2013-01-02 12:12:00,
2013-01-02 03:22:00,36.0,36.0,-100.00,SSE,164,2.0,6.0,100,0.00,,,0.00,0.000000,,2013-01-02 12:22:00,
2013-01-02 03:43:00,34.0,34.0,-100.00,SSE,161,0.0,2.0,100,0.00,,,-99.99,0.000000,,2013-01-02 12:43:00,
2013-01-02 03:53:00,34.0,34.0,-100.00,SSE,161,0.0,2.0,100,0.00,,,-99.99,0.000000,,2013-01-02 12:53:00,
2013-01-02 04:02:00,34.0,34.0,-100.00,SSE,161,0.0,2.0,100,0.00,,,-99.99,0.000000,,2013-01-02 13:02:00,
2013-01-02 04:12:00,34.0,34.0,-100.00,SSE,161,0.0,2.0,100,0.00,,,-99.99,0.000000,,2013-01-02 13:12:00,
2013-01-02 04:22:00,34.0,34.0,-100.00,SSE,161,0.0,2.0,100,0.00,,,-99.99,0.000000,,2013-01-02 13:22:00,
2013-01-02 04:43:00,32.0,32.0,-100.00,South,181,0.0,1.0,100,0.00,,,0.00,0.000000,,2013-01-02 13:43:00,
2013-01-02 04:52:00,32.0,32.0,-100.00,South,181,0.0,1.0,100,0.00,,,0.00,0.000000,,2013-01-02 13:52:00,
2013-01-02 05:02:00,32.0,32.0,-100.00,South,181,0.0,1.0,100,0.00,,,0.00,0.000000,,2013-01-02 14:02:00,
2013-01-02 05:12:00,32.0,32.0,-100.00,South,181,0.0,1.0,100,0.00,,,0.00,0.000000,,2013-01-02 14:12:00,
2013-01-02 05:22:00,32.0,32.0,-100.00,South,181,0.0,1.0,100,0.00,,,0.00,0.000000,,2013-01-02 14:22:00,
2013-01-02 05:43:00,32.0,32.0,-100.00,SSE,164,0.0,1.0,100,0.00,,,0.00,0.000000,,2013-01-02 14:43:00,
2013-01-02 05:53:00,32.0,32.0,-100.00,SSE,164,0.0,1.0,100,0.00,,,0.00,0.000000,,2013-01-02 14:53:00,
2013-01-02 06:02:00,32.0,32.0,-100.00,SSE,164,0.0,1.0,100,0.00,,,0.00,0.000000,,2013-01-02 15:02:00,
2013-01-02 06:12:00,32.0,32.0,-100.00,SSE,164,0.0,1.0,100,0.00,,,0.00,0.000000,,2013-01-02 15:12:00,
2013-01-02 06:22:00,32.0,32.0,-100.00,SSE,164,0.0,1.0,100,0.00,,,0.00,0.000000,,2013-01-02 15:22:00,
2013-01-02 06:43:00,32.0,32.0,-100.00,SSE,165,0.0,1.0,100,0.00,,,0.00,0.000000,,2013-01-02 15:43:00,
2013-01-02 06:53:00,32.0,32.0,-100.00,SSE,165,0.0,1.0,100,0.00,,,0.00,0.000000,,2013-01-02 15:53:00,
2013-01-02 07:03:00,32.0,32.0,-100.00,SSE,165,0.0,1.0,100,0.00,,,0.00,0.000000,,2013-01-02 16:03:00,
2013-01-02 07:12:00,32.0,32.0,-100.00,SSE,165,0.0,1.0,100,0.00,,,0.00,0.000000,,2013-01-02 16:12:00,
2013-01-02 07:22:00,32.0,32.0,-100.00,SSE,165,0.0,1.0,100,0.00,,,0.00,0.000000,,2013-01-02 16:22:00,
2013-01-02 07:43:00,32.0,32.0,-100.00,SSE,152,0.0,2.0,100,0.00,,,0.00,0.000000,,2013-01-02 16:43:00,
2013-01-02 07:53:00,32.0,32.0,-100.00,SSE,152,0.0,2.0,100,0.00,,,0.00,0.000000,,2013-01-02 16:53:00,
2013-01-02 08:03:00,32.0,32.0,-100.00,SSE,152,0.0,2.0,100,0.00,,,0.00,0.000000,,2013-01-02 17:03:00,
2013-01-02 08:12:00,32.0,32.0,-100.00,SSE,152,0.0,2.0,100,0.00,,,0.00,0.000000,,2013-01-02 17:12:00,
2013-01-02 08:22:00,32.0,32.0,-100.00,SSE,152,0.0,2.0,100,0.00,,,0.00,0.000000,,2013-01-02 17:22:00,
2013-01-02 08:43:00,32.0,32.0,-100.00,NW,308,0.0,1.0,100,0.00,,,0.00,0.000000,,2013-01-02 17:43:00,
2013-01-02 08:53:00,32.0,32.0,-100.00,NW,308,0.0,1.0,100,0.00,,,0.00,0.000000,,2013-01-02 17:53:00,
2013-01-02 09:02:00,32.0,32.0,-100.00,NW,308,0.0,1.0,100,0.00,,,0.00,0.000000,,2013-01-02 18:02:00,
2013-01-02 09:12:00,32.0,32.0,-100.00,NW,308,0.0,1.0,100,0.00,,,0.00,0.000000,,2013-01-02 18:12:00,
2013-01-02 09:22:00,32.0,32.0,-100.00,NW,308,0.0,1.0,100,0.00,,,0.00,0.000000,,2013-01-02 18:22:00,
2013-01-02 09:43:00,32.0,32.0,-100.00,South,179,0.0,1.0,100,0.00,,,0.00,0.000000,,2013-01-02 18:43:00,
2013-01-02 09:53:00,32.0,32.0,-100.00,South,179,0.0,1.0,100,0.00,,,0.00,0.000000,,2013-01-02 18:53:00,
2013-01-02 10:02:00,32.0,32.0,-100.00,South,179,0.0,1.0,100,0.00,,,0.00,0.000000,,2013-01-02 19:02:00,
2013-01-02 10:12:00,32.0,32.0,-100.00,South,179,0.0,1.0,100,0.00,,,0.00,0.000000,,2013-01-02 19:12:00,
2013-01-02 10:22:00,32.0,32.0,-100.00,South,179,0.0,1.0,100,0.00,,,0.00,0.000000,,2013-01-02 19:22:00,
2013-01-02 10:43:00,32.0,32.0,-100.00,NW,325,0.0,2.0,100,0.02,,,0.02,2.000000,,2013-01-02 19:43:00,
2013-01-02 10:52:00,32.0,32.0,-100.00,NW,325,0.0,2.0,100,0.02,,,0.02,2.000000,,2013-01-02 19:52:00,
2013-01-02 11:02:00,32.0,32.0,-100.00,NW,325,0.0,2.0,100,0.02,,,0.02,2.000000,,2013-01-02 20:02:00,
2013-01-02 11:12:00,32.0,32.0,-100.00,NW,325,0.0,2.0,100,0.02,,,0.02,2.000000,,2013-01-02 20:12:00,
2013-01-02 11:22:00,32.0,32.0,-100.00,NW,325,0.0,2.0,100,0.02,,,0.02,2.000000,,2013-01-02 20:22:00,
2013-01-02 11:42:00,32.0,32.0,-100.00,NW,323,1.0,4.0,100,-99.99,,,0.00,5.000000,,2013-01-02 20:42:00,
2013-01-02 11:53:00,32.0,32.0,-100.00,NW,323,1.0,4.0,100,-99.99,,,0.00,5.000000,,2013-01-02 20:53:00,
2013-01-02 12:03:00,32.0,32.0,-100.00,NW,323,1.0,4.0,100,-99.99,,,0.00,5.000000,,2013-01-02 21:03:00,
2013-01-02 12:12:00,32.0,32.0,-100.00,NW,323,1.0,4.0,100,-99.99,,,0.00,5.000000,,2013-01-02 21:12:00,
2013-01-02 12:22:00,32.0,32.0,-100.00,NW,323,1.0,4.0,100,-99.99,,,0.00,5.000000,,2013-01-02 21:22:00,
2013-01-02 12:43:00,34.0,34.0,-100.00,SW,224,0.0,2.0,100,0.00,,,-99.99,22.000000,,2013-01-02 21:43:00,
2013-01-02 12:53:00,34.0,34.0,-100.00,SW,224,0.0,2.0,100,0.00,,,-99.99,22.000000,,2013-01-02 21:53:00,
2013-01-02 13:02:00,34.0,34.0,-100.00,SW,224,0.0,2.0,100,0.00,,,-99.99,22.000000,,2013-01-02 22:02:00,
2013-01-02 13:12:00,34.0,34.0,-100.00,SW,224,0.0,2.0,100,0.00,,,-99.99,22.000000,,2013-01-02 22:12:00,
2013-01-02 13:22:00,34.0,34.0,-100.00,SW,224,0.0,2.0,100,0.00,,,-99.99,22.000000,,2013-01-02 22:22:00,
2013-01-02 13:43:00,34.0,34.0,-100.00,NW,323,0.0,3.0,100,0.00,,,-99.99,17.000000,,2013-01-02 22:43:00,
2013-01-02 13:53:00,34.0,34.0,-100.00,NW,323,0.0,3.0,100,0.00,,,-99.99,17.000000,,2013-01-02 22:53:00,
2013-01-02 14:02:00,34.0,34.0,-100.00,NW,323,0.0,3.0,100,0.00,,,-99.99,17.000000,,2013-01-02 23:02:00,
2013-01-02 14:12:00,34.0,34.0,-100.00,NW,323,0.0,3.0,100,0.00,,,-99.99,17.000000,,2013-01-02 23:12:00,
2013-01-02 14:22:00,34.0,34.0,-100.00,NW,323,0.0,3.0,100,0.00,,,-99.99,17.000000,,2013-01-02 23:22:00,
2013-01-02 14:43:00,34.0,34.0,-100.00,NW,322,0.0,2.0,100,0.00,,,-99.99,23.000000,,2013-01-02 23:43:00,
2013-01-02 14:53:00,34.0,34.0,-100.00,NW,322,0.0,2.0,100,0.00,,,-99.99,23.000000,,2013-01-02 23:53:00,
2013-01-02 15:02:00,34.0,34.0,-100.00,NW,322,0.0,2.0,100,0.00,,,-99.99,23.000000,,2013-01-03 00:02:00,
2013-01-02 15:12:00,34.0,34.0,-100.00,NW,322,0.0,2.0,100,0.00,,,-99.99,23.000000,,2013-01-03 00:12:00,
2013-01-02 15:22:00,34.0,34.0,-100.00,NW,322,0.0,2.0,100,0.00,,,-99.99,23.000000,,2013-01-03 00:22:00,
2013-01-02 15:42:00,34.0,34.0,-100.00,West,280,0.0,3.0,100,0.00,,,-99.99,12.000000,,2013-01-03 00:42:00,
2013-01-02 15:52:00,34.0,34.0,-100.00,West,280,0.0,3.0,100,0.00,,,-99.99,12.000000,,2013-01-03 00:52:00,
2013-01-02 16:02:00,34.0,34.0,-100.00,West,280,0.0,3.0,100,0.00,,,-99.99,12.000000,,2013-01-03 01:02:00,
2013-01-02 16:12:00,34.0,34.0,-100.00,West,280,0.0,3.0,100,0.00,,,-99.99,12.000000,,2013-01-03 01:12:00,
2013-01-02 16:22:00,34.0,34.0,-100.00,West,280,0.0,3.0,100,0.00,,,-99.99,12.000000,,2013-01-03 01:22:00,
2013-01-02 16:43:00,34.0,34.0,-100.00,WNW,290,0.0,1.0,100,0.00,,,-99.99,1.000000,,2013-01-03 01:43:00,
2013-01-02 16:52:00,34.0,34.0,-100.00,WNW,290,0.0,1.0,100,0.00,,,-99.99,1.000000,,2013-01-03 01:52:00,
2013-01-02 17:02:00,34.0,34.0,-100.00,WNW,290,0.0,1.0,100,0.00,,,-99.99,1.000000,,2013-01-03 02:02:00,
2013-01-02 17:12:00,34.0,34.0,-100.00,WNW,290,0.0,1.0,100,0.00,,,-99.99,1.000000,,2013-01-03 02:12:00,
2013-01-02 17:22:00,34.0,34.0,-100.00,WNW,290,0.0,1.0,100,0.00,,,-99.99,1.000000,,2013-01-03 02:22:00,
2013-01-02 18:02:00,32.0,32.0,-100.00,WNW,288,0.0,2.0,100,0.00,,,-99.99,0.000000,,2013-01-03 03:02:00,
2013-01-02 18:12:00,32.0,32.0,-100.00,WNW,288,0.0,2.0,100,0.00,,,-99.99,0.000000,,2013-01-03 03:12:00,
2013-01-02 18:22:00,32.0,32.0,-100.00,WNW,288,0.0,2.0,100,0.00,,,-99.99,0.000000,,2013-01-03 03:22:00,
2013-01-02 18:47:00,32.0,32.0,-100.00,South,186,0.0,2.0,100,0.00,,,-99.99,0.000000,,2013-01-03 03:47:00,
2013-01-02 18:52:00,32.0,32.0,-100.00,South,186,0.0,2.0,100,0.00,,,-99.99,0.000000,,2013-01-03 03:52:00,
2013-01-02 19:02:00,32.0,32.0,-100.00,South,186,0.0,2.0,100,0.00,,,-99.99,0.000000,,2013-01-03 04:02:00,
2013-01-02 19:12:00,32.0,32.0,-100.00,South,186,0.0,2.0,100,0.00,,,-99.99,0.000000,,2013-01-03 04:12:00,
2013-01-02 19:22:00,32.0,32.0,-100.00,South,186,0.0,2.0,100,0.00,,,-99.99,0.000000,,2013-01-03 04:22:00,
2013-01-02 19:43:00,32.0,32.0,-100.00,WNW,300,0.0,1.0,100,0.01,,,-99.99,0.000000,,2013-01-03 04:43:00,
2013-01-02 19:52:00,32.0,32.0,-100.00,WNW,300,0.0,1.0,100,0.01,,,-99.99,0.000000,,2013-01-03 04:52:00,
2013-01-02 20:03:00,32.0,32.0,-100.00,WNW,300,0.0,1.0,100,0.01,,,-99.99,0.000000,,2013-01-03 05:03:00,
2013-01-02 20:12:00,32.0,32.0,-100.00,WNW,300,0.0,1.0,100,0.01,,,-99.99,0.000000,,2013-01-03 05:12:00,
2013-01-02 20:22:00,32.0,32.0,-100.00,WNW,300,0.0,1.0,100,0.01,,,-99.99,0.000000,,2013-01-03 05:22:00,
2013-01-02 20:42:00,32.0,32.0,-100.00,WNW,302,0.0,1.0,100,-99.99,,,-99.99,0.000000,,2013-01-03 05:42:00,
2013-01-02 20:53:00,32.0,32.0,-100.00,WNW,302,0.0,1.0,100,-99.99,,,-99.99,0.000000,,2013-01-03 05:53:00,
2013-01-02 21:02:00,32.0,32.0,-100.00,WNW,302,0.0,1.0,100,-99.99,,,-99.99,0.000000,,2013-01-03 06:02:00,
2013-01-02 21:12:00,32.0,32.0,-100.00,WNW,302,0.0,1.0,100,-99.99,,,-99.99,0.000000,,2013-01-03 06:12:00,
2013-01-02 21:22:00,32.0,32.0,-100.00,WNW,302,0.0,1.0,100,-99.99,,,-99.99,0.000000,,2013-01-03 06:22:00,
2013-01-02 21:42:00,32.0,32.0,-100.00,SSW,194,0.0,1.0,100,0.00,,,-99.99,0.000000,,2013-01-03 06:42:00,
2013-01-02 21:52:00,32.0,32.0,-100.00,SSW,194,0.0,1.0,100,0.00,,,-99.99,0.000000,,2013-01-03 06:52:00,
2013-01-02 22:02:00,32.0,32.0,-100.00,SSW,194,0.0,1.0,100,0.00,,,-99.99,0.000000,,2013-01-03 07:02:00,
2013-01-02 22:12:00,32.0,32.0,-100.00,SSW,194,0.0,1.0,100,0.00,,,-99.99,0.000000,,2013-01-03 07:12:00,
2013-01-02 22:22:00,32.0,32.0,-100.00,SSW,194,0.0,1.0,100,0.00,,,-99.99,0.000000,,2013-01-03 07:22:00,
2013-01-02 22:43:00,32.0,32.0,-100.00,SSE,164,0.0,2.0,100,0.00,,,0.00,0.000000,,2013-01-03 07:43:00,
2013-01-02 22:53:00,32.0,32.0,-100.00,SSE,164,0.0,2.0,100,0.00,,,0.00,0.000000,,2013-01-03 07:53:00,
2013-01-02 23:02:00,32.0,32.0,-100.00,SSE,164,0.0,2.0,100,0.00,,,0.00,0.000000,,2013-01-03 08:02:00,
2013-01-02 23:11:00,32.0,32.0,-100.00,SSE,164,0.0,2.0,100,0.00,,,0.00,0.000000,,2013-01-03 08:11:00,
2013-01-02 23:22:00,32.0,32.0,-100.00,SSE,164,0.0,2.0,100,0.00,,,0.00,0.000000,,2013-01-03 08:22:00,
2013-01-02 23:43:00,32.0,32.0,-100.00,West,275,0.0,1.0,100,0.01,,,0.01,0.000000,,2013-01-03 08:43:00,
2013-01-02 23:53:00,32.0,32.0,-100.00,West,275,0.0,1.0,100,0.01,,,0.01,0.000000,,2013-01-03 08:53:00,